Dean International
Flight School

Career Spotlight

Mika

Mika

Congratulations to Mika from Khazakstan. She recently sent us this photo of her flying an Airbus airliner.

More...
Mika's Success Story
close

Congratulations to Mika from Khazakstan. She recently sent us this photo of her flying an Airbus airliner.

Mario

Mario

My dreams could not have been realized if I wouldn't have been part of the Dean International family.

More...
Mario's Success Story
close

"My dreams could not have been realized if I wouldn't have been part of the Dean International family. Thank you Robert, thanks to all my co-workers, and thanks to all of my students!"

Fernando

Fernando

I am now working as a First Officer at TACA and am enjoying every moment of it.

More...
Fernando's Success Story
close

"Will never forget my time of flight training at Dean International. I am now working as a First Officer at TACA and am enjoying every moment of it."

Alvaro

Alvaro

Because of the flight time I was able to built while instructing, I got the experience needed to apply to an airline in Colombia.

More...
Alvaro's Success Story
close

Dean alumnus Alvaro Londoño currently flies with Tampa Cargo. He says of his experience at Dean: "I want to take this opportunity to thank you for giving me the chance to build my experience and expand my knowledge in Dean International. Because of the flight time I was able to built flight instructing, I got the experience needed to apply to an airline in Colombia."

Ralph

Ralph

Every Aruban student of Dean International has made it into Tiara Air Aruba, that is very nice.

More...
Ralph's Success Story
close

"Next to me is my Co-Pilot, Elison. This picture was taken on our first flight together, which was almost exactly 5 years after I finished at Dean International. [...] Every Aruban student of Dean International has made it into Tiara Air Aruba. [...] The future looks bright here in Aruba."

Rohaan

Rohaan

The [..] staff will all work diligently to help you finish your certificates as safely and efficiently as possible.

More...
Rohaan's Success Story
close

After receiving very hard times from other flight schools [...], I came to Dean International where Robert Dean personally sat down with me and gave me a financial and chronological look into how much remained to finish my private pilot certificate. Through his hard efforts as an instructor and mentor, I was able to finish my private pilot certificate within one week.

Welcome to Dean International

In over two decades, Dean International has educated over 7,000 pilots from all over the world, including over 1,000 students from India alone. By offering a great training experience, a friendly service staff, an ample variety of aircraft, and by improving constantly, we have become one of the largest, most prestigious FAA 141-approved flight schools in North America. Located in Miami, Florida, USA, our flight school offers an ideal location for year-round, "learn to fly" weather, flight training. Dean International is not only well-equipped to provide services to professional trainees but also caters to General Aviation renters. Visit or contact our headquarters at Kendall-Tamiami Executive Airport located in Miami, FL today to learn more about us, or simply read more about our programs if you are an international student interested in joining our school.

Local Airport Information
TAF FOR KTMB (Issued: Wed, July 23rd 2014 12:27 PM UTC)
TAF KTMB 231125Z 2312/2412 VRB02KT P6SM FEW025 SCT030
      FM231500 14008KT P6SM VCTS SCT025CB BKN050
      FM232000 12008KT P6SM SCT035 BKN150
      FM240100 VRB03KT P6SM FEW030
     
METAR FOR KTMB (Issued: Wed, July 23rd 2014 12:53 PM UTC):
KTMB 231253Z 00000KT 7SM -RA FEW021 SCT029 BKN037 28/25 A3008 RMK AO2 RAB44 SLP185 P0001 T02830250

This weather information is provided by the National Weather Service.
It is automatically refreshed every three minutes.
TAF FOR KHST (Issued: Wed, July 23rd 2014 12:51 PM UTC)
TAF
      AMD KHST 2312/2414 18006KT 9999 SCT020 SCT120 QNH3003INS
      TEMPO 2313/2323 17010G15KT 6000 -TSRA FEW005 BKN020CB OVC065
      BECMG 2322/2323 18006KT 9999 FEW100 QNH3001INS TX31/2318Z TN24/2410Z
      AMD 231240
     
METAR FOR KHST (Issued: Wed, July 23rd 2014 1:23 PM UTC):
KHST 231323Z AUTO 20003KT 10SM SCT024 29/25 A3008 RMK AO2

This weather information is provided by the National Weather Service.
It is automatically refreshed every three minutes.
TAF FOR KOPF (Issued: Wed, July 23rd 2014 12:27 PM UTC)
TAF KOPF 231125Z 2312/2412 VRB03KT P6SM VCSH SCT030 SCT200
      FM231500 14008KT P6SM VCTS SCT025CB BKN050
      FM232000 14008KT P6SM SCT035 BKN120
      FM240100 VRB03KT P6SM FEW030
     
METAR FOR KOPF (Issued: Wed, July 23rd 2014 1:19 PM UTC):
KOPF 231319Z 18010KT 1SM +RA BR BKN030 27/24 A3010 RMK AO2 RAB14 P0000 T02670244 $

This weather information is provided by the National Weather Service.
It is automatically refreshed every three minutes.
TAF FOR KMIA (Issued: Wed, July 23rd 2014 12:30 PM UTC)
TAF KMIA 231125Z 2312/2412 VRB03KT P6SM SCT025 SCT250
      FM231500 14008KT P6SM VCTS SCT025CB BKN050
      FM232000 12008KT P6SM SCT035 BKN120
      FM240100 VRB03KT P6SM FEW030
     
METAR FOR KMIA (Issued: Wed, July 23rd 2014 1:26 PM UTC):
KMIA 231326Z 00000KT 10SM SCT019CB BKN060 BKN300 27/24 A3009 RMK AO2 RAE06 CB N-NE MOV N TCU ALQDS P0000 T02720244

This weather information is provided by the National Weather Service.
It is automatically refreshed every three minutes.
Design by Ariel Llizo
© Dean International Inc. 2012